CW9767 Weather Reports


time (UTC)temp
C
wind
direction
speed
KPH
gust
KPH
rain 1hr
cm
rain 24hr
cm
rain mn
cm
humidity
%
barometer
mb
20260503203332 16 243 11.3 32.2 0.00 0.00 0.00 45 1010.8
20260503202329 17 249 12.9 32.2 0.00 0.00 0.00 43 1011.2
20260503201327 16 243 11.3 25.7 0.00 0.00 0.00 43 1011.2
20260503200326 16 248 16.1 30.6 0.00 0.00 0.00 42 1011.5
20260503195252 17 250 14.5 30.6 0.00 0.00 0.00 41 1011.5
20260503194250 17 230 11.3 27.4 0.00 0.00 0.00 43 1011.5
20260503193248 17 243 11.3 25.7 0.00 0.00 0.00 40 1011.9
20260503192242 17 244 11.3 29.0 0.00 0.00 0.00 42 1011.9
20260503191239 17 235 11.3 29.0 0.00 0.00 0.00 40 1011.9
20260503190133 17 240 11.3 27.4 0.00 0.00 0.00 39 1011.9
20260503185059 17 242 14.5 29.0 0.00 0.00 0.00 40 1012.2
20260503184057 16 235 11.3 29.0 0.00 0.00 0.00 40 1012.2
20260503183053 16 240 11.3 30.6 0.00 0.00 0.00 41 1012.5
20260503182017 16 253 16.1 30.6 0.00 0.00 0.00 41 1012.9
20260503181014 16 240 16.1 27.4 0.00 0.00 0.00 39 1012.9
20260503180013 16 249 12.9 30.6 0.00 0.00 0.00 39 1012.9
20260503175009 16 251 16.1 45.1 0.00 0.00 0.00 41 1013.2
20260503174009 15 250 20.9 45.1 0.00 0.00 0.00 38 1013.2
20260503173008 15 249 14.5 33.8 0.00 0.00 0.00 41 1013.2
20260503172007 16 247 17.7 29.0 0.00 0.00 0.00 39 1013.5
20260503170934 16 244 11.3 22.5 0.00 0.00 0.00 40 1013.5
20260503150845 13 256 9.7 29.0 0.00 0.00 0.00 49 1014.9
20260503130619 7 243 4.8 11.3 0.00 0.00 0.00 68 1015.6
20260503110600 2 215 0.0 0.0 0.00 0.00 0.00 75 1015.2
20260503090337 1 217 0.0 0.0 0.00 0.00 0.00 76 1015.9
20260503081258 1 217 0.0 0.0 0.00 0.00 0.00 76 1015.9
20260503080256 1 217 0.0 0.0 0.00 0.00 0.00 75 1015.9
20260503072249 1 217 0.0 0.0 0.00 0.00 0.00 75 1016.3
20260503071248 1 227 0.0 0.0 0.00 0.00 0.00 77 1016.3
20260503070246 1 221 0.0 0.0 0.00 0.00 0.00 80 1016.3
20260503060206 0 255 0.0 0.0 0.00 0.00 0.00 83 1016.6
20260503054203 0 255 0.0 0.0 0.00 0.00 0.00 81 1016.6
20260503053201 0 255 0.0 0.0 0.00 0.00 0.00 82 1016.6
20260503052057 0 255 0.0 0.0 0.00 0.00 0.00 85 1016.6
20260503051023 0 255 0.0 0.0 0.00 0.00 0.00 83 1016.6
20260503050013 0 255 0.0 0.0 0.00 0.00 0.00 82 1016.6
20260503044958 0 255 0.0 0.0 0.00 0.00 0.00 81 1016.9
20260503043956 0 255 0.0 0.0 0.00 0.00 0.00 81 1016.6
20260503042955 0 255 0.0 0.0 0.00 0.00 0.00 79 1016.6
20260503041953 0 255 0.0 0.0 0.00 0.00 0.00 78 1016.9
20260503040952 0 255 0.0 0.0 0.00 0.00 0.00 77 1016.9
20260503035950 0 255 0.0 0.0 0.00 0.00 0.00 77 1016.9
20260503034948 0 255 0.0 0.0 0.00 0.00 0.00 76 1016.9
20260503033947 0 255 0.0 0.0 0.00 0.00 0.00 74 1016.9
20260503032945 1 255 0.0 0.0 0.00 0.00 0.00 74 1016.9
20260503031944 1 255 0.0 0.0 0.00 0.00 0.00 73 1016.9
20260503030942 2 255 0.0 0.0 0.00 0.00 0.00 72 1016.9
20260503025941 2 255 0.0 0.0 0.00 0.00 0.00 71 1016.9
20260503024941 2 255 0.0 0.0 0.00 0.00 0.00 70 1016.9
20260503023939 3 255 0.0 0.0 0.00 0.00 0.00 68 1016.9
20260503022937 3 255 0.0 0.0 0.00 0.00 0.00 66 1016.9
20260503021936 5 255 0.0 0.0 0.00 0.00 0.00 63 1016.6
20260503020935 5 255 0.0 0.0 0.00 0.00 0.00 63 1016.6
20260503015933 5 255 0.0 0.0 0.00 0.00 0.00 63 1016.6
20260503014931 5 255 0.0 0.0 0.00 0.00 0.00 63 1016.9
20260503013930 5 255 0.0 0.0 0.00 0.00 0.00 65 1016.9
20260503012928 5 255 0.0 0.0 0.00 0.00 0.00 65 1016.6
20260503011926 6 255 0.0 0.0 0.00 0.00 0.00 63 1016.6
20260503010925 6 255 0.0 0.0 0.00 0.00 0.00 62 1016.6
20260503005923 6 255 0.0 0.0 0.00 0.00 0.00 63 1016.6
20260503004922 7 255 0.0 0.0 0.00 0.00 0.00 59 1016.6
20260503003920 7 255 0.0 0.0 0.00 0.00 0.00 55 1016.6
20260503002920 8 255 0.0 0.0 0.00 0.00 0.00 54 1016.6
20260503001918 8 243 0.0 0.0 0.00 0.00 0.00 53 1016.3
20260503000917 8 259 0.0 0.0 0.00 0.00 0.00 50 1016.3
20260502235844 8 264 0.0 0.0 0.00 0.00 0.00 48 1016.3
20260502234842 9 264 0.0 0.0 0.00 0.00 0.00 47 1016.3
20260502233841 9 284 0.0 6.4 0.00 0.00 0.00 47 1016.3
20260502232839 9 291 0.0 6.4 0.00 0.00 0.00 46 1016.3
20260502231806 9 261 0.0 8.0 0.00 0.00 0.00 48 1016.6
20260502230630 10 264 3.2 8.0 0.00 0.00 0.00 44 1016.6
20260502225630 9 281 1.6 6.4 0.00 0.00 0.00 48 1016.6
20260502224628 9 297 1.6 14.5 0.00 0.00 0.00 46 1016.6
20260502223626 10 266 3.2 14.5 0.00 0.00 0.00 45 1016.6
20260502222624 9 312 3.2 8.0 0.00 0.03 0.00 46 1016.6
20260502221623 9 268 1.6 14.5 0.00 0.08 0.00 46 1016.6
20260502220621 9 310 3.2 14.5 0.00 0.08 0.00 45 1016.6
20260502215620 9 293 3.2 12.9 0.00 0.08 0.00 45 1016.6
20260502214619 9 268 3.2 9.7 0.00 0.08 0.00 45 1016.6
20260502213618 9 266 3.2 9.7 0.00 0.08 0.00 46 1016.6
20260502212617 9 282 3.2 9.7 0.00 0.08 0.00 46 1016.6
20260502211616 8 303 1.6 14.5 0.00 0.08 0.00 44 1016.6
20260502210614 9 322 6.4 16.1 0.00 0.08 0.00 43 1016.6
20260502205614 8 272 3.2 16.1 0.00 0.08 0.00 47 1016.9
20260502204613 8 335 3.2 11.3 0.00 0.08 0.00 46 1016.9